Погода в Симферополе

Хотите узнать прогноз погоды в Симферополе? Тогда Вам сюда: Погода в Симферополе

Поиск расширенной информации на нашем сайте:

Полезная информация:

Новости сайта



02.01.2020
Опубликован Долгосрочный прогноз погоды по городам России и ближнего зарубежья на январь 2020 года.
Карты: Прогноз на январь и февраль 2020 года, Сравнение прогнозируемой аномалии приземной температуры воздуха на январь 2020 года по разным моделям.




Погода в Симферополе - сегодня

Время (UTC), дата Ветер
(°,м/с) 
Видим.   Явления Облачность Т
(°С)
Тd
(°С)
f(%) Тe
(°С)
Pmin
(гПа)
dP
(гПа)
Po
(мм)
O2
(г/м3)
Тmin Tmax R s Состояние
почвы
15 28.11.20 050 (СВ) 10 км    4/0 верхняя 
[Ci fib]
+8.1 +2.3 67 +8  1019.4  0.2  748  292           
18 28.11.20 120 (ЮВ) 10 км    10/0 верхняя 
[Ci fib]
+7.4 +3.8 78 +6  1019.8  0.4  748  293    +14.7       
21 28.11.20 130 (ЮВ) 10 км    4/0 верхняя 
[Ci fib]
+5.5 +2.3 80 +4  1020.2  0.2  748  295           
00 29.11.20 120 (ЮВ) 10 км    1/0 верхняя 
[Ci fib]
+4.5 +1 78 +3  1020.2  -0.1  748  296           
03 29.11.20 110 (В) 10 км    4/0 средняя, верхняя 
[Ac trans|Ci fib]
+4.8 +0 71 +4  1020.3  0.1  748  296  +3.6         
06 29.11.20 090 (В) 10 км    10/0 средняя, верхняя 
[Ac trans|Ci fib]
+4.4 +1.1 79 +5  1020.8  0.5  749  297  +2.9         
09 29.11.20 160 (Ю) 10 км    10/0 средняя, верхняя 
[Ac trans|Ci fib]
+11.5 +4.5 62 +12  1020.3  0.1  749  289           
12 29.11.20 220 (ЮЗ) 10 км    10/1 1500 м верхняя 
[Sc|Ci]
+13.7 +5.6 58 +14  1019.9  -0.3  749  286           
15 29.11.20 090 (В) 10 км    10/0 средняя, верхняя 
[Ac trans|Ci sp]
+8.2 +2.9 69 +8  1021  0.7  749  293           
18 29.11.20 120 (ЮВ) 10 км    8/0 верхняя 
[Ci fib]
+7.3 +2 69 +7  1021.4  0.3  749  294    +14       
21 29.11.20 120 (ЮВ) 10 км    8/0 верхняя 
[Ci fib]
+5.7 +1.2 73 +5  1021.7  0.2  750  296           
00 30.11.20 100 (В) 10 км    5/0 верхняя 
[Ci fib]
+4.3 +0.4 76 +2  1021.5  -0.3  749  297           
03 30.11.20 090 (В) 10 км    10/0 верхняя 
[Ci fib]
+3.8 +1 82 +1  1020.9  -0.7  749  297  +3.2         
06 30.11.20 090 (В) 10 км    10/0 средняя, верхняя 
[Ac trans|Ci sp]
+4.2 +0.2 75 +2  1020.7  -0.1  749  297  +2.4         
09 30.11.20 050 (СВ) 10 км    8/0 верхняя 
[Ci]
+8.6 +3.2 69 +7  1019.5  -0.8  748  292           
12 30.11.20 050 (СВ) 10 км    8/1 100 м верхняя 
[St|Ci]
+7.8 +5.3 84 +6  1018.6  -1  747  292           
15 30.11.20 060 (СВ) 6000 м  дымка  4/0 средняя, верхняя 
[Ac trans|Ci fib]
+4.8 +4.7 99 +2  1018.9  0.1  747  295           
18 30.11.20 060 (СВ) 7{11}  0400 м  туман  ?/?  
+3.7 +3.7 100 +1  1018.7  -0.3  747  296    +10.2       
21 30.11.20 060 (СВ) 5000 м  дымка{туман}  6/0 верхняя 
[Ci fib]
+2.3 +2 98 -1  1017.9  -0.9  747  298           
00 01.12.20 060 (СВ) 8{10}  5000 м  дымка{туман}  10/3 100 м верхняя 
[St|Ci fib]
+2.6 +2.3 98 -1  1017.7  -0.2  746  298           
03 01.12.20 070 (В) 6000 м  дымка  10/3 200 м верхняя 
[St|Ci fib]
+3.6 +3.5 99 1017.8  0.2  747  296  +1.3         
06 01.12.20 070 (В) 9-11  10 км    10/4 300 м верхняя 
[St|Ci fib]
+4.6 +3.3 91 +1  1018.3  0.6  747  295  +1.3         
09 01.12.20 060 (СВ) 7-12{13}  10 км    10/10 450 м 
[St]
+6.4 +3.7 83 +4  1018.4  0.2  747  294           
12 01.12.20 050 (СВ) 7{12}  10 км    8/8 450 м 
[St]
+6.7 +2.8 76 +4  1018.2  -0.2  747  293           
15 01.12.20 050 (СВ) 10 км    9/9 420 м 
[St]
+4.5 +3.8 95 +2  1019.3  0.9  748  296           
Время (UTC), дата Ветер
(°,м/с) 
Видим.   Явления Облачность Т
(°С)
Тd
(°С)
f(%) Тe
(°С)
Pmin
(гПа)
dP
(гПа)
Po
(мм)
O2
(г/м3)
Тmin Tmax R s Состояние
почвы

Для получения пояснительной информации подведите курсор к названию столбца.

ПОГОДА в Симферополе - архив

Всё, что Вы хотите узнать о погоде в Симферополе - удобно и подробно!

Выберите нужную дату (начиная с 1 января 2019* года) и нажмите кнопку "Найти".
Будут отображены архивные сводки погоды по пункту Симферополь, начиная с указанной даты.


Отображать данные в формате CSV (для использования в таблицах Excel)


Внимание! Наш архив погоды предназначен исключительно для личного некоммерческого использования в познавательных целях. Если Вам необходимы официальные справки о состоянии погоды (для производственных, юридических, коммерческих и т.п. целей), обращайтесь в органы Росгидромета.

*Примечание: данная дата относится к архиву по метеостанциям СССР (Россия, СНГ, Балтия).
Архив по метеостанциям Зарубежной Европы и Азии (кроме Китая) хранится 10 дней, по другим регионам земного шара (Китай, Африка, Америка, Австралия, Океания) - 1 день.

Симферополь - район местоположения метеостанции


Название, широта, долгота, высота метеостанции:
Симферополь 44.7°ш. 34.1°д. 181 м над ур. моря [Российская Федерация]

Дополнительная информация

В oтличие oт бoльшинства пoгoдных сайтoв мы публикуем пoдрoбную метеoинфoрмацию в детальнoм прoфессиoнальнoм фoрмате.

Характеристики температуры и влажнoсти вoздуха измеряются на высoте 2 м в тени вдали oт зданий и деревьев.
Скoрoсть ветра измеряется на высoте 10 м (на урoвне рoста челoвека скoрoсть ветра ниже в 1.5-2 раза). Если метеoстанция нахoдится в гoрoде или в лесу, тo скoрoсть ветра занижена на 2-4 м/с пo сравнению с oткрытым местoм. Скoрoсть ветра над акватoриями крупных рек и oзёр, а также на вершинах хoлмoв на 2-5 м/с выше, чем в oбычных услoвиях.
Атмoсфернoе давление в разных тoчках местнoсти мoжет значительнo oтличаться oт давления на метеoстанции, в зависимoсти oт услoвий рельефа (при пoдъёме на 10 м давление пoнижается примернo на 1 мм рт.ст.).